Baltimore, MD

7:27 PM EDT on April 23, 2018 (GMT -0400)
Baltimore-Washington International

Weather History for KBWI - March, 2012

Change the Weather History Date:

Thursday, March 22, 2012

  Actual Average Record
Temperature  
Mean Temperature 66 °F 45 °F  
Max Temperature 76 °F 56 °F 86 °F (1907)
Min Temperature 55 °F 35 °F 19 °F (1885)
Degree Days  
Heating Degree Days 0 20  
Month to date heating degree days 243 505  
Since 1 July heating degree days 3147 4100  
Cooling Degree Days 1 0  
Month to date cooling degree days 8 0  
Year to date cooling degree days 8 0  
Growing Degree Days 14 (Base 50)    
Moisture  
Dew Point 58 °F    
Average Humidity 82    
Maximum Humidity 100    
Minimum Humidity 64    
Precipitation  
Precipitation T in 0.13 in 1.45 in (1950)
Month to date precipitation 1.02 2.71  
Year to date precipitation 5.98 8.66  
Snow  
Snow 0.00 in 0.00 in 3.40 in (1914)
Month to date snowfall T 1.7  
Since 1 July snowfall 1.8 19.9  
Snow Depth 0.00 in    
Sea Level Pressure  
Sea Level Pressure 30.21 in    
Wind  
Wind Speed 2 mph (ESE)    
Max Wind Speed 12 mph    
Max Gust Speed 13 mph    
Visibility 4 miles    
Events Fog    
T = Trace of Precipitation, MM = Missing Value Source: NWS Daily Summary

Daily Weather History Graph

Daily Weather History Graph

Search for Another Location

Airport or City:

Astronomy

Mar. 22, 2012 Rise Set
Actual Time 7:06 AM EDT 7:21 PM EDT
Civil Twilight 6:39 AM EDT 7:47 PM EDT
Nautical Twilight 6:08 AM EDT 8:19 PM EDT
Astronomical Twilight 5:36 AM EDT 8:51 PM EDT
Moon 6:44 AM EDT (3/22) 7:43 PM EDT (3/22)
Length of Visible Light 13h 08m
Length of Day
12h 14m
New Moon, 0% of the Moon is Illuminated
Mar 22
New Moon
Mar 30
First Quarter
Apr 6
Full
Apr 13
Last Quarter
Apr 21
New

Hourly Weather History & Observations

Time (EDT) Temp. Dew Point Humidity Pressure Visibility Wind Dir Wind Speed Gust Speed Precip Events Conditions
12:31 AM 57.2 °F 55.4 °F 94% 30.27 in 5.0 mi Calm Calm - N/A   Mostly Cloudy
12:48 AM 57.2 °F 55.4 °F 94% 30.26 in 6.0 mi Calm Calm - N/A   Scattered Clouds
12:54 AM 57.0 °F 55.9 °F 96% 30.27 in 6.0 mi Calm Calm - N/A   Scattered Clouds
1:02 AM 57.2 °F 55.4 °F 94% 30.27 in 5.0 mi NW 3.5 mph - N/A   Mostly Cloudy
1:33 AM 57.2 °F 55.4 °F 94% 30.26 in 6.0 mi Calm Calm - N/A   Mostly Cloudy
1:54 AM 57.0 °F 55.9 °F 96% 30.26 in 5.0 mi Calm Calm - N/A   Overcast
2:41 AM 57.2 °F 55.4 °F 94% 30.24 in 5.0 mi Calm Calm - N/A   Mostly Cloudy
2:54 AM 57.0 °F 55.9 °F 96% 30.24 in 4.0 mi Calm Calm - N/A   Scattered Clouds
3:54 AM 55.0 °F 54.0 °F 96% 30.22 in 3.0 mi Calm Calm - N/A   Scattered Clouds
4:14 AM 55.4 °F 53.6 °F 94% 30.22 in 2.5 mi Calm Calm - N/A   Scattered Clouds
4:18 AM 55.4 °F 53.6 °F 94% 30.22 in 2.5 mi Calm Calm - N/A   Overcast
4:38 AM 57.2 °F 55.4 °F 94% 30.22 in 1.0 mi ESE 4.6 mph - N/A   Overcast
4:40 AM 57.2 °F 55.4 °F 94% 30.22 in 0.5 mi ESE 3.5 mph - N/A Fog Fog
4:46 AM 57.2 °F 57.2 °F 100% 30.22 in 0.1 mi SE 3.5 mph - N/A Fog Fog
4:54 AM 57.0 °F 57.0 °F 100% 30.22 in 0.1 mi Calm Calm - N/A Fog Fog
4:57 AM 57.2 °F 57.2 °F 100% 30.23 in 0.1 mi Calm Calm - N/A Fog Fog
5:38 AM 57.2 °F 57.2 °F 100% 30.23 in 0.1 mi East 4.6 mph - N/A Fog Fog
5:54 AM 57.0 °F 57.0 °F 100% 30.23 in 0.1 mi Calm Calm - N/A Fog Fog
6:48 AM 57.2 °F 57.2 °F 100% 30.24 in 0.1 mi Calm Calm - N/A Fog Fog
6:54 AM 57.9 °F 57.0 °F 97% 30.25 in 0.1 mi Calm Calm - 0.00 in Fog Light Drizzle
7:38 AM 57.2 °F 57.2 °F 100% 30.25 in 0.2 mi Calm Calm - 0.00 in Fog Fog
7:54 AM 57.9 °F 57.9 °F 100% 30.25 in 0.2 mi Calm Calm - 0.00 in Fog Fog
8:02 AM 57.2 °F 57.2 °F 100% 30.25 in 0.1 mi Calm Calm - 0.00 in Fog Light Drizzle
8:14 AM 57.2 °F 57.2 °F 100% 30.26 in 0.1 mi Calm Calm - 0.00 in Fog Fog
8:35 AM 57.2 °F 57.2 °F 100% 30.26 in 0.2 mi Calm Calm - 0.00 in Fog Light Drizzle
8:42 AM 57.2 °F 57.2 °F 100% 30.26 in 0.2 mi Calm Calm - 0.00 in Fog Fog
8:54 AM 57.9 °F 57.9 °F 100% 30.25 in 0.5 mi Calm Calm - 0.00 in Fog Fog
9:21 AM 59.0 °F 57.2 °F 94% 30.25 in 1.0 mi Calm Calm - N/A   Mist
9:54 AM 59.0 °F 59.0 °F 100% 30.24 in 1.2 mi Calm Calm - N/A   Overcast
10:47 AM 60.8 °F 59.0 °F 94% 30.24 in 2.0 mi Calm Calm - N/A   Overcast
10:54 AM 62.6 °F 59.0 °F 88% 30.24 in 2.5 mi Calm Calm - N/A   Overcast
11:18 AM 62.6 °F 59.0 °F 88% 30.23 in 3.0 mi Calm Calm - N/A   Overcast
11:54 AM 64.0 °F 59.0 °F 84% 30.23 in 6.0 mi Variable 3.5 mph - N/A   Haze
12:10 PM 64.4 °F 59.0 °F 83% 30.22 in 6.0 mi South 4.6 mph - N/A   Haze
12:54 PM 66.0 °F 60.1 °F 81% 30.20 in 8.0 mi South 6.9 mph - N/A   Mostly Cloudy
1:31 PM 69.8 °F 60.8 °F 73% 30.19 in 9.0 mi Variable 3.5 mph - N/A   Scattered Clouds
1:54 PM 70.0 °F 60.1 °F 71% 30.17 in 10.0 mi Calm Calm - N/A   Scattered Clouds
2:54 PM 73.0 °F 60.1 °F 64% 30.14 in 10.0 mi Calm Calm - N/A   Partly Cloudy
3:54 PM 72.0 °F 61.0 °F 68% 30.12 in 10.0 mi ENE 10.4 mph - N/A   Scattered Clouds
4:54 PM 71.1 °F 61.0 °F 70% 30.11 in 10.0 mi ENE 9.2 mph - N/A   Scattered Clouds
5:54 PM 71.1 °F 60.1 °F 68% 30.11 in 10.0 mi ENE 6.9 mph - N/A   Scattered Clouds
6:54 PM 70.0 °F 60.1 °F 71% 30.12 in 9.0 mi East 6.9 mph - N/A   Scattered Clouds
7:54 PM 66.9 °F 60.1 °F 79% 30.12 in 8.0 mi ESE 3.5 mph - N/A   Scattered Clouds
8:54 PM 66.2 °F 59.0 °F 78% 30.12 in 9.0 mi Calm Calm - N/A   Partly Cloudy
9:54 PM 63.0 °F 59.0 °F 87% 30.12 in 7.0 mi Calm Calm - N/A   Partly Cloudy
10:54 PM 62.1 °F 57.9 °F 86% 30.12 in 6.0 mi Calm Calm - N/A   Partly Cloudy
11:54 PM 61.0 °F 57.9 °F 90% 30.11 in 5.0 mi Calm Calm - N/A   Scattered Clouds